Location: Central Coast NSW, Australia
(33.2407°S, 151.4316°E)
Time: 09:25:57
(UTC+10:00)

N. Korean satellite - Visible Passes

Search period start: 21 May 2019 00:00
Search period end: 31 May 2019 00:00
Orbit: 457 x 508 km, 97.2° (Epoch: 19 May)

Date Brightness Start Highest point End Pass type
(mag) Time Alt. Az. Time Alt. Az. Time Alt. Az.
21 May 6.6 05:34:50 10° N 05:38:12 49° W 05:41:36 10° SSW visible
21 May 9.0 18:39:00 10° SSW 18:41:58 23° WSW 18:44:55 10° NW visible
22 May 6.8 05:09:48 10° NNE 05:13:13 65° ESE 05:16:35 11° S visible
22 May 7.5 18:13:30 10° S 18:17:06 50° WSW 18:20:42 10° NNW visible
23 May 8.5 04:45:21 10° NE 04:48:19 27° ESE 04:51:12 11° SSE visible
23 May 6.6 17:48:27 10° SSE 17:52:10 69° E 17:55:52 10° N visible
24 May 9.6 04:21:53 10° E 04:23:31 13° ESE 04:25:09 10° SE visible
24 May 7.5 05:53:42 10° NNW 05:56:39 26° W 05:59:38 10° SW visible
24 May 7.5 17:23:50 10° SE 17:27:09 30° E 17:30:26 10° NNE visible
24 May 9.7 18:58:20 10° SW 19:00:15 14° WSW 19:02:08 10° W visible
25 May 6.4 05:28:10 10° N 05:31:35 63° W 05:34:49 12° SSW visible
25 May 8.7 18:32:13 10° SSW 18:35:26 28° WSW 18:38:39 10° NW visible
26 May 7.3 05:03:15 10° NNE 05:06:37 51° ESE 05:09:27 14° S visible
26 May 7.1 18:06:51 10° S 18:10:33 62° WSW 18:14:14 10° NNW visible
27 May 8.9 04:38:59 10° NE 04:41:45 22° ESE 04:44:07 12° SSE visible
27 May 8.3 06:13:06 10° NW 06:15:07 15° W 06:17:09 10° WSW visible
27 May 6.8 17:41:54 10° SSE 17:45:35 55° E 17:49:15 10° N visible
28 May 9.8 04:16:07 10° E 04:16:57 11° ESE 04:17:48 10° SE visible
28 May 7.2 05:46:51 10° NNW 05:49:59 32° W 05:53:04 11° SSW visible
28 May 7.8 17:17:25 10° SE 17:20:32 25° E 17:23:38 10° NNE visible
28 May 9.5 18:51:18 10° SSW 18:53:42 16° WSW 18:56:06 10° WNW visible
29 May 6.3 05:21:29 10° N 05:24:57 80° W 05:27:43 16° SSW visible
29 May 8.3 18:25:28 10° S 18:28:53 33° WSW 18:32:16 10° NW visible
30 May 7.7 04:56:43 10° NE 05:00:00 41° ESE 05:02:23 17° S visible
30 May 6.8 18:00:12 10° S 18:03:58 78° WSW 18:07:42 10° NNW visible
